CES2268 ZUCK-ZLXY

Flight info

Callsign CES2268
Flight time 0h 57m
Altitude 26600
Route OVNUL W677 IGIRO H39 AKD H36 NSH
Aircraft A20N/M-SDE2E3FGILRWXY/LB2

Departure

Time 2026-04-21 14:44
Airport Chongqing Jiangbei International Airport (ZUCK)

Arrival

Time 2026-04-21 15:42
Airport Xi'an Xianyang International Airport (ZLXY)
Time Latitude Longitude Altitude Speed Heading
2026-04-21 14:07 29.71964 106.65063 1370 ft 0 kts 174°
2026-04-21 14:33 29.71981 106.65060 1370 ft 2 kts 174°
2026-04-21 14:33 29.71995 106.65059 1370 ft 2 kts 174°
2026-04-21 14:34 29.72006 106.65057 1370 ft 2 kts 174°
2026-04-21 14:34 29.72026 106.65055 1370 ft 2 kts 174°
2026-04-21 14:34 29.72036 106.65054 1370 ft 2 kts 174°
2026-04-21 14:34 29.72051 106.65053 1370 ft 1 kts 174°
2026-04-21 14:35 29.72067 106.65047 1370 ft 2 kts 136°
2026-04-21 14:35 29.72075 106.65035 1370 ft 1 kts 108°
2026-04-21 14:35 29.72077 106.65025 1370 ft 2 kts 103°
2026-04-21 14:35 29.72081 106.65009 1370 ft 2 kts 109°
2026-04-21 14:36 29.72085 106.64994 1370 ft 2 kts 107°
2026-04-21 14:36 29.72089 106.64978 1370 ft 2 kts 108°
2026-04-21 14:36 29.72094 106.64961 1370 ft 2 kts 107°
2026-04-21 14:36 29.72096 106.64951 1370 ft 1 kts 108°
2026-04-21 14:37 29.72097 106.64951 1370 ft 0 kts 108°
2026-04-21 14:38 29.72095 106.64956 1370 ft 2 kts 111°
2026-04-21 14:38 29.72076 106.64980 1370 ft 6 kts 151°
2026-04-21 14:39 29.72017 106.64979 1370 ft 11 kts 197°
2026-04-21 14:39 29.71934 106.64950 1370 ft 12 kts 197°
2026-04-21 14:39 29.71887 106.64884 1370 ft 9 kts 276°
2026-04-21 14:39 29.71902 106.64806 1370 ft 10 kts 266°
2026-04-21 14:40 29.71869 106.64761 1370 ft 12 kts 205°
2026-04-21 14:40 29.71778 106.64723 1370 ft 15 kts 198°
2026-04-21 14:40 29.71637 106.64674 1369 ft 16 kts 197°
2026-04-21 14:40 29.71563 106.64648 1370 ft 16 kts 197°
2026-04-21 14:41 29.71451 106.64609 1369 ft 16 kts 197°
2026-04-21 14:41 29.71337 106.64570 1369 ft 17 kts 198°
2026-04-21 14:41 29.71226 106.64527 1369 ft 17 kts 199°
2026-04-21 14:41 29.71110 106.64493 1369 ft 17 kts 190°
2026-04-21 14:42 29.70996 106.64452 1369 ft 17 kts 197°
2026-04-21 14:42 29.70881 106.64412 1369 ft 17 kts 197°
2026-04-21 14:42 29.70763 106.64372 1369 ft 17 kts 195°
2026-04-21 14:42 29.70635 106.64325 1369 ft 11 kts 207°
2026-04-21 14:43 29.70617 106.64271 1369 ft 12 kts 282°
2026-04-21 14:43 29.70645 106.64178 1369 ft 12 kts 298°
2026-04-21 14:43 29.70716 106.64152 1369 ft 12 kts 14°
2026-04-21 14:43 29.70846 106.64197 1369 ft 43 kts 17°
2026-04-21 14:44 29.71379 106.64379 1370 ft 113 kts 18°
2026-04-21 14:44 29.72277 106.64684 1400 ft 162 kts 14°
2026-04-21 14:44 29.73400 106.65045 1893 ft 171 kts 14°
2026-04-21 14:44 29.74541 106.65436 2616 ft 170 kts 17°
2026-04-21 14:45 29.75651 106.65826 3237 ft 172 kts 18°
2026-04-21 14:45 29.76813 106.66238 3661 ft 188 kts 18°
2026-04-21 14:45 29.78015 106.66663 4060 ft 204 kts 18°
2026-04-21 14:45 29.79465 106.67172 4439 ft 227 kts 18°
2026-04-21 14:46 29.81035 106.67718 4955 ft 245 kts 17°
2026-04-21 14:46 29.82676 106.68287 5475 ft 262 kts 17°
2026-04-21 14:46 29.84454 106.68902 6264 ft 270 kts 17°
2026-04-21 14:46 29.86253 106.69524 7149 ft 273 kts 17°
2026-04-21 14:47 29.88081 106.70157 8037 ft 276 kts 17°
2026-04-21 14:47 29.89917 106.70792 8904 ft 279 kts 16°
2026-04-21 14:47 29.91704 106.71411 9708 ft 283 kts 16°
2026-04-21 14:47 29.93605 106.72070 10493 ft 288 kts 16°
2026-04-21 14:48 29.96240 106.72979 11098 ft 310 kts 16°
2026-04-21 14:48 29.97648 106.73465 11356 ft 322 kts 16°
2026-04-21 14:48 29.99864 106.74232 11712 ft 340 kts 16°
2026-04-21 14:48 30.02112 106.75011 12073 ft 355 kts 16°
2026-04-21 14:49 30.04516 106.75845 12659 ft 362 kts 16°
2026-04-21 14:49 30.06918 106.76681 13312 ft 366 kts 16°
2026-04-21 14:49 30.09392 106.77541 13928 ft 370 kts 16°
2026-04-21 14:49 30.11871 106.78404 14531 ft 375 kts 16°
2026-04-21 14:50 30.14376 106.79273 15117 ft 379 kts 16°
2026-04-21 14:50 30.17756 106.80477 15903 ft 385 kts 17°
2026-04-21 14:50 30.19441 106.81172 16283 ft 388 kts 20°
2026-04-21 14:50 30.21929 106.82381 16838 ft 392 kts 23°
2026-04-21 14:51 30.24402 106.83782 17363 ft 397 kts 26°
2026-04-21 14:51 30.26879 106.85248 17896 ft 402 kts 26°
2026-04-21 14:51 30.29379 106.86739 18405 ft 406 kts 25°
2026-04-21 14:51 30.31911 106.88248 18882 ft 411 kts 25°
2026-04-21 14:52 30.34446 106.89752 19359 ft 416 kts 26°
2026-04-21 14:52 30.37032 106.91290 19830 ft 420 kts 25°
2026-04-21 14:52 30.39589 106.92810 20272 ft 425 kts 25°
2026-04-21 14:52 30.42049 106.94271 20707 ft 429 kts 25°
2026-04-21 14:53 30.45621 106.96396 21292 ft 436 kts 25°
2026-04-21 14:53 30.47438 106.97474 21580 ft 439 kts 25°
2026-04-21 14:53 30.50143 106.99082 22021 ft 443 kts 25°
2026-04-21 14:53 30.52926 107.00740 22418 ft 448 kts 25°
2026-04-21 14:54 30.55650 107.02441 22812 ft 454 kts 27°
2026-04-21 14:54 30.58191 107.04240 23183 ft 460 kts 31°
2026-04-21 14:54 30.60846 107.06358 23624 ft 464 kts 33°
2026-04-21 14:54 30.64365 107.09293 24259 ft 467 kts 34°
2026-04-21 14:55 30.66114 107.10765 24650 ft 467 kts 33°
2026-04-21 14:55 30.69612 107.13707 25425 ft 466 kts 33°
2026-04-21 14:55 30.72223 107.15895 25886 ft 468 kts 33°
2026-04-21 14:55 30.73992 107.17376 26181 ft 470 kts 33°
2026-04-21 14:56 30.76652 107.19604 26491 ft 473 kts 33°
2026-04-21 14:56 30.79325 107.21836 26524 ft 474 kts 33°
2026-04-21 14:56 30.82876 107.24810 26530 ft 474 kts 33°
2026-04-21 14:56 30.84676 107.26321 26528 ft 474 kts 33°
2026-04-21 14:57 30.87341 107.28560 26528 ft 474 kts 33°
2026-04-21 14:57 30.90022 107.30810 26535 ft 474 kts 33°
2026-04-21 14:57 30.92675 107.33042 26536 ft 474 kts 33°
2026-04-21 14:57 30.95368 107.35304 26535 ft 473 kts 33°
2026-04-21 14:58 30.98043 107.37554 26536 ft 473 kts 33°
2026-04-21 14:58 31.01585 107.40537 26535 ft 472 kts 33°
2026-04-21 14:58 31.03387 107.42008 26536 ft 471 kts 31°
2026-04-21 14:58 31.06128 107.44032 26535 ft 469 kts 27°
2026-04-21 14:59 31.09922 107.46536 26535 ft 469 kts 26°
2026-04-21 14:59 31.11817 107.47750 26538 ft 469 kts 25°
2026-04-21 14:59 31.14672 107.49579 26535 ft 470 kts 25°
2026-04-21 14:59 31.17545 107.51425 26537 ft 469 kts 26°
2026-04-21 15:00 31.20385 107.53253 26540 ft 469 kts 26°
2026-04-21 15:00 31.23237 107.55096 26548 ft 468 kts 26°
2026-04-21 15:00 31.27045 107.57568 26543 ft 467 kts 26°
2026-04-21 15:00 31.28924 107.58787 26549 ft 468 kts 25°
2026-04-21 15:01 31.31800 107.60651 26552 ft 469 kts 26°
2026-04-21 15:01 31.34653 107.62510 26548 ft 469 kts 26°
2026-04-21 15:01 31.38422 107.64990 26552 ft 468 kts 26°
2026-04-21 15:01 31.40299 107.66225 26554 ft 468 kts 26°
2026-04-21 15:02 31.44097 107.68726 26559 ft 467 kts 26°
2026-04-21 15:02 31.45971 107.69948 26563 ft 467 kts 26°
2026-04-21 15:02 31.48813 107.71787 26559 ft 467 kts 26°
2026-04-21 15:02 31.51673 107.73632 26565 ft 467 kts 26°
2026-04-21 15:03 31.54528 107.75479 26568 ft 467 kts 26°
2026-04-21 15:03 31.57349 107.77310 26562 ft 466 kts 26°
2026-04-21 15:03 31.61101 107.79816 26560 ft 468 kts 29°
2026-04-21 15:03 31.62925 107.81186 26563 ft 469 kts 32°
2026-04-21 15:04 31.65574 107.83419 26571 ft 470 kts 36°
2026-04-21 15:04 31.68124 107.85821 26575 ft 470 kts 37°
2026-04-21 15:04 31.71505 107.89106 26581 ft 470 kts 38°
2026-04-21 15:04 31.73174 107.90735 26584 ft 469 kts 38°
2026-04-21 15:05 31.75694 107.93196 26587 ft 469 kts 38°
2026-04-21 15:05 31.80703 107.98073 26586 ft 469 kts 38°
2026-04-21 15:05 31.83192 108.00495 26596 ft 469 kts 37°
2026-04-21 15:06 31.85726 108.02958 26595 ft 470 kts 38°
2026-04-21 15:06 31.88249 108.05411 26598 ft 470 kts 37°
2026-04-21 15:06 31.91573 108.08649 26607 ft 468 kts 37°
2026-04-21 15:06 31.93252 108.10284 26601 ft 468 kts 37°
2026-04-21 15:07 31.95767 108.12734 26595 ft 468 kts 37°
2026-04-21 15:07 31.98255 108.15163 26598 ft 468 kts 37°
2026-04-21 15:07 32.00778 108.17625 26602 ft 468 kts 37°
2026-04-21 15:07 32.03277 108.20070 26603 ft 468 kts 38°
2026-04-21 15:08 32.05765 108.22505 26609 ft 468 kts 37°
2026-04-21 15:08 32.08290 108.24977 26617 ft 467 kts 37°
2026-04-21 15:08 32.10781 108.27425 26611 ft 467 kts 38°
2026-04-21 15:08 32.13231 108.29888 26614 ft 468 kts 38°
2026-04-21 15:09 32.15706 108.32400 26618 ft 468 kts 38°
2026-04-21 15:09 32.18198 108.34927 26625 ft 468 kts 38°
2026-04-21 15:09 32.20659 108.37422 26636 ft 467 kts 38°
2026-04-21 15:09 32.23090 108.39890 26643 ft 468 kts 38°
2026-04-21 15:10 32.25575 108.42413 26638 ft 469 kts 38°
2026-04-21 15:10 32.28045 108.44925 26648 ft 469 kts 38°
2026-04-21 15:10 32.30509 108.47427 26652 ft 469 kts 38°
2026-04-21 15:10 32.32984 108.49944 26650 ft 468 kts 38°
2026-04-21 15:11 32.35450 108.52455 26650 ft 468 kts 38°
2026-04-21 15:11 32.37890 108.54942 26646 ft 467 kts 38°
2026-04-21 15:11 32.41198 108.58312 26647 ft 468 kts 38°
2026-04-21 15:11 32.43646 108.60799 26646 ft 468 kts 38°
2026-04-21 15:12 32.46139 108.63320 26653 ft 468 kts 38°
2026-04-21 15:12 32.47777 108.64978 26650 ft 467 kts 38°
2026-04-21 15:12 32.50246 108.67474 26661 ft 468 kts 38°
2026-04-21 15:12 32.52716 108.69978 26667 ft 467 kts 38°
2026-04-21 15:13 32.55199 108.72496 26673 ft 468 kts 38°
2026-04-21 15:13 32.57659 108.74991 26673 ft 468 kts 38°
2026-04-21 15:13 32.60112 108.77483 26678 ft 467 kts 38°
2026-04-21 15:13 32.62593 108.80008 26676 ft 467 kts 38°
2026-04-21 15:14 32.65046 108.82503 26679 ft 468 kts 38°
2026-04-21 15:14 32.67504 108.85007 26675 ft 469 kts 38°
2026-04-21 15:14 32.70972 108.88091 26652 ft 461 kts 22°
2026-04-21 15:14 32.72943 108.88949 26660 ft 454 kts
2026-04-21 15:15 32.76058 108.89209 26679 ft 445 kts 349°
2026-04-21 15:15 32.79030 108.88306 26687 ft 436 kts 332°
2026-04-21 15:15 32.81554 108.86436 26683 ft 427 kts 315°
2026-04-21 15:15 32.83737 108.84048 26683 ft 427 kts 313°
2026-04-21 15:16 32.85885 108.81666 26679 ft 428 kts 313°
2026-04-21 15:16 32.88090 108.79230 26677 ft 428 kts 313°
2026-04-21 15:16 32.90272 108.76833 26676 ft 428 kts 314°
2026-04-21 15:16 32.92382 108.74517 26673 ft 428 kts 314°
2026-04-21 15:17 32.94576 108.72118 26669 ft 428 kts 314°
2026-04-21 15:17 32.96758 108.69737 26662 ft 427 kts 314°
2026-04-21 15:17 32.98955 108.67333 26667 ft 427 kts 314°
2026-04-21 15:17 33.01143 108.64938 26665 ft 427 kts 314°
2026-04-21 15:18 33.03331 108.62541 26660 ft 428 kts 314°
2026-04-21 15:18 33.05512 108.60153 26664 ft 428 kts 314°
2026-04-21 15:18 33.07693 108.57763 26664 ft 427 kts 314°
2026-04-21 15:18 33.10621 108.54554 26668 ft 427 kts 313°
2026-04-21 15:19 33.12083 108.52949 26669 ft 427 kts 314°
2026-04-21 15:19 33.14982 108.49762 26665 ft 427 kts 314°
2026-04-21 15:19 33.16444 108.48156 26665 ft 427 kts 314°
2026-04-21 15:19 33.18618 108.45766 26667 ft 426 kts 314°
2026-04-21 15:20 33.20809 108.43350 26491 ft 427 kts 314°
2026-04-21 15:20 33.23003 108.40932 26240 ft 427 kts 314°
2026-04-21 15:20 33.25156 108.38558 25989 ft 425 kts 314°
2026-04-21 15:20 33.27359 108.36195 25746 ft 425 kts 319°
2026-04-21 15:21 33.29945 108.34453 25681 ft 433 kts 335°
2026-04-21 15:21 33.32911 108.33664 25675 ft 443 kts 352°
2026-04-21 15:21 33.36017 108.33948 25679 ft 452 kts
2026-04-21 15:21 33.38972 108.35306 25688 ft 459 kts 22°
2026-04-21 15:22 33.41811 108.37016 25681 ft 459 kts 23°
2026-04-21 15:22 33.44685 108.38766 25673 ft 459 kts 23°
2026-04-21 15:22 33.47490 108.40468 25672 ft 458 kts 22°
2026-04-21 15:22 33.50324 108.42182 25554 ft 453 kts 22°
2026-04-21 15:23 33.53135 108.43877 25298 ft 447 kts 22°
2026-04-21 15:23 33.55911 108.45544 24886 ft 447 kts 22°
2026-04-21 15:23 33.58711 108.47224 24309 ft 446 kts 22°
2026-04-21 15:23 33.61454 108.48869 23724 ft 445 kts 22°
2026-04-21 15:24 33.64204 108.50521 23284 ft 437 kts 22°
2026-04-21 15:24 33.66901 108.52144 22820 ft 432 kts 22°
2026-04-21 15:24 33.69585 108.53762 22339 ft 428 kts 22°
2026-04-21 15:24 33.72225 108.55351 21867 ft 424 kts 22°
2026-04-21 15:25 33.74857 108.56931 21380 ft 420 kts 22°
2026-04-21 15:25 33.77449 108.58484 20876 ft 416 kts 22°
2026-04-21 15:25 33.80003 108.60015 20378 ft 412 kts 22°
2026-04-21 15:25 33.82575 108.61561 19880 ft 408 kts 23°
2026-04-21 15:26 33.85092 108.63076 19389 ft 404 kts 23°
2026-04-21 15:26 33.87588 108.64576 18881 ft 401 kts 23°
2026-04-21 15:26 33.90083 108.66077 18397 ft 396 kts 24°
2026-04-21 15:26 33.92517 108.67545 17910 ft 392 kts 23°
2026-04-21 15:27 33.94952 108.69012 17430 ft 388 kts 24°
2026-04-21 15:27 33.97347 108.70455 16951 ft 384 kts 24°
2026-04-21 15:27 33.99696 108.71875 16469 ft 379 kts 24°
2026-04-21 15:27 34.02052 108.73298 15998 ft 375 kts 24°
2026-04-21 15:28 34.04385 108.74703 15553 ft 370 kts 24°
2026-04-21 15:28 34.06665 108.76067 15389 ft 366 kts 24°
2026-04-21 15:28 34.08949 108.77427 15204 ft 365 kts 24°
2026-04-21 15:28 34.11223 108.78784 15019 ft 363 kts 24°
2026-04-21 15:29 34.13476 108.80130 14860 ft 361 kts 24°
2026-04-21 15:29 34.15719 108.81471 14698 ft 359 kts 24°
2026-04-21 15:29 34.17965 108.82816 14533 ft 357 kts 24°
2026-04-21 15:29 34.20161 108.84132 14409 ft 355 kts 24°
2026-04-21 15:30 34.22438 108.85175 14225 ft 338 kts
2026-04-21 15:30 34.24720 108.85263 13916 ft 328 kts 356°
2026-04-21 15:30 34.26975 108.85105 13594 ft 320 kts 356°
2026-04-21 15:30 34.29192 108.84956 13240 ft 315 kts 356°
2026-04-21 15:31 34.31364 108.84821 12877 ft 310 kts 357°
2026-04-21 15:31 34.33514 108.84691 12533 ft 305 kts 357°
2026-04-21 15:31 34.35602 108.84644 12219 ft 300 kts
2026-04-21 15:31 34.37532 108.85509 11926 ft 297 kts 35°
2026-04-21 15:32 34.38893 108.87344 11649 ft 295 kts 52°
2026-04-21 15:32 34.40075 108.89380 11306 ft 290 kts 51°
2026-04-21 15:32 34.41276 108.91295 11008 ft 285 kts 49°
2026-04-21 15:32 34.42518 108.93132 10634 ft 280 kts 47°
2026-04-21 15:33 34.43770 108.94905 10288 ft 271 kts 47°
2026-04-21 15:33 34.44983 108.96588 9965 ft 262 kts 47°
2026-04-21 15:33 34.46176 108.98235 9614 ft 255 kts 47°
2026-04-21 15:33 34.47334 108.99833 9268 ft 249 kts 47°
2026-04-21 15:34 34.48461 109.01383 8972 ft 244 kts 47°
2026-04-21 15:34 34.49572 109.02911 8693 ft 240 kts 47°
2026-04-21 15:34 34.50666 109.04417 8368 ft 239 kts 47°
2026-04-21 15:34 34.51787 109.05938 7751 ft 248 kts 43°
2026-04-21 15:35 34.53264 109.07076 7111 ft 259 kts 16°
2026-04-21 15:35 34.55055 109.07198 6482 ft 265 kts 348°
2026-04-21 15:35 34.56712 109.06260 5862 ft 270 kts 323°
2026-04-21 15:35 34.58117 109.04738 5259 ft 269 kts 317°
2026-04-21 15:36 34.59272 109.03020 4903 ft 262 kts 301°
2026-04-21 15:36 34.59845 109.00932 4840 ft 267 kts 274°
2026-04-21 15:36 34.59530 108.98764 4838 ft 258 kts 245°
2026-04-21 15:36 34.58459 108.97105 4845 ft 241 kts 223°
2026-04-21 15:37 34.57238 108.95799 4838 ft 227 kts 223°
2026-04-21 15:37 34.56153 108.94499 4838 ft 211 kts 228°
2026-04-21 15:37 34.55220 108.93236 4805 ft 196 kts 230°
2026-04-21 15:37 34.54332 108.91994 4541 ft 192 kts 230°
2026-04-21 15:38 34.53474 108.90794 4293 ft 187 kts 230°
2026-04-21 15:38 34.52660 108.89666 4054 ft 169 kts 230°
2026-04-21 15:38 34.51914 108.88638 3799 ft 155 kts 230°
2026-04-21 15:38 34.51230 108.87698 3570 ft 142 kts 230°
2026-04-21 15:39 34.50589 108.86816 3395 ft 140 kts 230°
2026-04-21 15:39 34.49949 108.85934 3221 ft 139 kts 230°
2026-04-21 15:39 34.49303 108.85046 3036 ft 138 kts 229°
2026-04-21 15:39 34.48667 108.84183 2866 ft 138 kts 230°
2026-04-21 15:40 34.48038 108.83308 2676 ft 137 kts 230°
2026-04-21 15:40 34.47403 108.82446 2498 ft 136 kts 229°
2026-04-21 15:40 34.46779 108.81587 2306 ft 136 kts 231°
2026-04-21 15:40 34.46170 108.80716 2133 ft 135 kts 230°
2026-04-21 15:41 34.45547 108.79861 1943 ft 134 kts 229°
2026-04-21 15:41 34.44928 108.79017 1771 ft 134 kts 229°
2026-04-21 15:41 34.44319 108.78173 1603 ft 133 kts 230°
2026-04-21 15:41 34.43763 108.77403 1576 ft 99 kts 229°
2026-04-21 15:42 34.43430 108.76943 1576 ft 41 kts 228°
2026-04-21 15:42 34.43304 108.76750 1576 ft 23 kts 242°
2026-04-21 15:42 34.43247 108.76571 1576 ft 18 kts 256°
2026-04-21 15:42 34.43238 108.76470 1576 ft 11 kts 302°
2026-04-21 15:43 34.43313 108.76473 1576 ft 13 kts 43°
2026-04-21 15:43 34.43376 108.76556 1576 ft 13 kts 49°
2026-04-21 15:43 34.43438 108.76639 1576 ft 8 kts 33°
2026-04-21 15:43 34.43495 108.76624 1576 ft 9 kts 318°
2026-04-21 15:44 34.43550 108.76569 1576 ft 10 kts 321°
2026-04-21 15:44 34.43611 108.76507 1576 ft 11 kts 319°
2026-04-21 15:44 34.43676 108.76439 1576 ft 12 kts 319°
2026-04-21 15:44 34.43721 108.76392 1576 ft 8 kts 319°
2026-04-21 15:45 34.43763 108.76382 1576 ft 6 kts 27°
2026-04-21 15:45 34.43769 108.76430 1576 ft 4 kts 128°
2026-04-21 15:45 34.43756 108.76447 1576 ft 1 kts 138°
2026-04-21 15:45 34.43751 108.76451 1576 ft 0 kts 138°